CDT,Max TemperatureF,Mean TemperatureF,Min TemperatureF,Max Dew PointF,MeanDew PointF,Min DewpointF,Max Humidity, Mean Humidity, Min Humidity, Max Sea Level PressureIn, Mean Sea Level PressureIn, Min Sea Level PressureIn, Max VisibilityMiles, Mean VisibilityMiles, Min VisibilityMiles, Max Wind SpeedMPH, Mean Wind SpeedMPH, Max Gust SpeedMPH,PrecipitationIn, CloudCover, Events, WindDirDegrees
2013-5-1,42,37,32,27,24,19,80,64,49,30.59,30.38,30.08,10,10,10,22,16,29,0.00,3,,341
2013-5-2,41,34,26,27,25,21,93,72,53,30.70,30.61,30.53,10,10,10,20,8,25,0.00,3,,2
2013-5-3,50,38,26,27,24,21,86,59,37,30.52,30.35,30.22,10,10,10,18,8,26,0.00,1,,14
2013-5-4,42,38,35,37,32,23,93,76,49,30.25,30.24,30.22,10,10,5,16,9,22,0.03,8,,30
2013-5-5,46,42,37,41,37,36,93,85,71,30.24,30.19,30.14,10,10,5,10,6,,0.06,8,,357
2013-5-6,68,55,42,46,43,39,93,70,43,30.15,30.09,30.02,10,10,10,7,1,,0.00,4,,179
2013-5-7,77,60,42,46,41,34,93,54,21,30.04,29.98,29.90,10,10,7,17,5,30,0.00,0,,169
2013-5-8,68,60,53,52,46,43,88,60,43,30.04,29.99,29.93,10,10,10,14,4,,0.01,5,,120
2013-5-9,66,54,42,46,40,34,82,57,40,30.17,30.10,30.05,10,10,10,18,13,26,0.01,1,,48
2013-5-10,69,54,39,43,32,27,93,53,24,30.17,30.07,29.86,10,10,7,36,9,44,0.00,1,,174
2013-5-11,51,42,32,30,19,9,81,43,19,30.28,30.23,30.11,10,10,10,28,16,38,0.00,1,,345
2013-5-12,60,42,24,21,16,12,69,35,15,30.27,30.18,30.03,10,10,7,10,5,17,0.00,0,,309
2013-5-13,89,68,46,41,29,19,39,28,12,30.03,29.78,29.58,10,10,10,30,15,37,0.00,1,,196
2013-5-14,87,69,51,50,38,21,68,36,9,29.81,29.62,29.52,10,10,10,37,11,50,0.02,1,,300
2013-5-15,82,63,44,43,33,23,71,37,12,29.88,29.83,29.78,10,10,10,22,8,30,0.00,1,,288
2013-5-16,78,61,44,37,34,32,62,33,18,29.92,29.87,29.83,10,10,10,20,8,29,0.00,3,,91
2013-5-17,69,62,55,55,43,30,77,50,28,29.91,29.88,29.86,10,10,10,20,12,28,0.00,6,,120
2013-5-18,84,70,55,63,54,46,94,61,27,29.88,29.79,29.69,10,9,2,20,11,23,0.00,4,,150
2013-5-19,73,66,60,63,59,55,94,76,53,29.69,29.60,29.55,10,9,1,28,13,37,0.79,5,,140
2013-5-20,64,58,53,59,55,52,94,88,73,29.56,29.47,29.42,10,8,1,16,8,22,0.00,8,,101
2013-5-21,55,50,46,52,47,43,94,86,76,29.84,29.66,29.51,10,9,3,17,13,23,0.00,8,,47
2013-5-22,64,55,46,52,46,41,93,77,52,30.06,29.91,29.82,10,10,5,20,9,29,0.00,6,,33
2013-5-23,64,54,44,46,40,32,93,60,30,30.31,30.25,30.07,10,10,10,14,6,18,0.00,1,,104
2013-5-24,62,53,44,48,40,32,82,63,39,30.30,30.22,30.11,10,10,7,24,13,30,0.00,3,,141
2013-5-25,62,56,51,52,48,46,82,75,67,30.16,30.12,30.07,10,10,10,24,17,31,0.00,7,,138
2013-5-26,59,54,50,46,45,43,82,72,59,30.15,30.08,30.00,10,10,10,25,14,32,0.00,8,,134
2013-5-27,64,58,51,52,50,46,88,75,64,30.02,29.89,29.79,10,9,3,14,11,21,0.00,8,,133
2013-5-28,71,62,53,55,53,50,94,77,53,29.81,29.71,29.65,10,8,2,15,10,21,0.00,6,,156
2013-5-29,68,60,53,61,56,52,94,85,68,29.73,29.65,29.54,10,8,2,20,10,24,0.00,4,,120
2013-5-30,75,67,59,61,59,54,94,76,53,29.54,29.45,29.40,10,10,4,24,13,29,0.00,6,,140
2013-5-31,64,60,55,55,54,50,88,81,72,29.54,29.40,29.33,10,10,5,25,14,32,0.00,6,,137